N4QB-13 Weather Reports


time (UTC)temp
C
wind
direction
speed
KPH
gust
KPH
rain 1hr
cm
rain 24hr
cm
rain mn
cm
humidity
%
barometer
mb
20260906131700 27 311 0.0 3.2 0.00 0.00 0.00 97 1011.5
20260906131155 26 259 1.6 3.2 0.00 0.00 0.00 97 1011.5
20260906130650 26 317 3.2 3.2 0.00 0.00 0.00 98 1011.4
20260906130145 26 277 0.0 1.6 0.00 0.00 0.00 99 1011.5
20260906125643 26 273 1.6 1.6 0.00 0.00 0.00 99 1011.4
20260906125142 26 250 0.0 0.0 0.00 0.00 0.00 99 1011.5
20260906124637 25 250 0.0 0.0 0.00 0.00 0.00 99 1011.5
20260906124132 25 249 0.0 0.0 0.00 0.00 0.00 99 1011.3
20260906123631 25 249 0.0 0.0 0.00 0.00 0.00 99 1011.3
20260906123127 25 249 0.0 0.0 0.00 0.00 0.00 99 1011.4
20260906122626 25 249 0.0 0.0 0.00 0.00 0.00 99 1011.1
20260906122122 25 249 0.0 0.0 0.00 0.00 0.00 99 1011.2
20260906121618 24 249 0.0 0.0 0.00 0.00 0.00 99 1011.2
20260906121114 24 249 0.0 0.0 0.00 0.00 0.00 99 1011.3
20260906120610 24 249 0.0 0.0 0.00 0.00 0.00 99 1011.2
20260906120107 23 249 0.0 0.0 0.00 0.00 0.00 99 1011.1
20260906115607 23 249 0.0 0.0 0.00 0.00 0.00 99 1011.1
20260906115102 23 250 0.0 0.0 0.00 0.00 0.00 99 1011.0
20260906114601 23 250 0.0 0.0 0.00 0.00 0.00 99 1010.8
20260906114057 23 250 0.0 0.0 0.00 0.00 0.00 99 1010.9
20260906113556 23 250 0.0 0.0 0.00 0.00 0.00 99 1010.7
20260906113052 23 250 0.0 0.0 0.00 0.00 0.00 99 1010.7
20260906112552 23 250 0.0 0.0 0.00 0.00 0.00 99 1010.6
20260906112048 23 250 0.0 0.0 0.00 0.00 0.00 99 1010.8
20260906111548 23 250 0.0 0.0 0.00 0.00 0.00 99 1010.8
20260906110334 23 250 0.0 0.0 0.00 0.00 0.00 99 1010.7
20260906105833 23 250 0.0 0.0 0.00 0.00 0.00 99 1010.7
20260906105329 23 250 0.0 0.0 0.00 0.00 0.00 99 1010.4
20260906104824 23 250 0.0 0.0 0.00 0.00 0.00 99 1010.4
20260906104323 23 250 0.0 0.0 0.00 0.00 0.00 99 1010.5
20260906103822 23 250 0.0 0.0 0.00 0.00 0.00 99 1010.3
20260906103320 23 250 0.0 0.0 0.00 0.00 0.00 99 1010.5
20260906102817 23 250 0.0 0.0 0.00 0.00 0.00 99 1010.1
20260906102315 23 250 0.0 0.0 0.00 0.00 0.00 99 1010.4
20260906101811 23 250 0.0 0.0 0.00 0.00 0.00 99 1010.2
20260906101306 23 250 0.0 0.0 0.00 0.00 0.00 99 1010.3
20260906100801 23 250 0.0 0.0 0.00 0.00 0.00 99 1010.2
20260906100301 23 250 0.0 0.0 0.00 0.00 0.00 99 1010.3
20260906095756 23 250 0.0 0.0 0.00 0.00 0.00 99 1010.5
20260906095251 23 250 0.0 0.0 0.00 0.00 0.00 99 1010.2
20260906094750 23 250 0.0 0.0 0.00 0.00 0.00 99 1010.3
20260906094245 23 250 0.0 0.0 0.00 0.00 0.00 99 1010.3
20260906093742 23 250 0.0 0.0 0.00 0.00 0.00 99 1010.3
20260906093237 23 250 0.0 0.0 0.00 0.00 0.00 99 1010.0
20260906092732 23 250 0.0 0.0 0.00 0.00 0.00 99 1010.1
20260906092232 23 250 0.0 0.0 0.00 0.00 0.00 99 1010.2
20260906091728 23 250 0.0 0.0 0.00 0.00 0.00 99 1010.0
20260906091224 23 249 0.0 0.0 0.00 0.00 0.00 99 1009.9
20260906090720 23 249 0.0 0.0 0.00 0.00 0.00 99 1009.9
20260906090219 23 250 0.0 0.0 0.00 0.00 0.00 99 1009.8
20260906085719 23 250 0.0 0.0 0.00 0.00 0.00 99 1010.0
20260906085218 23 250 0.0 0.0 0.00 0.00 0.00 99 1009.9
20260906084713 23 250 0.0 0.0 0.00 0.00 0.00 99 1009.8
20260906084212 23 249 0.0 0.0 0.00 0.00 0.00 99 1009.7
20260906083708 23 250 0.0 0.0 0.00 0.00 0.00 99 1009.7
20260906083203 23 250 0.0 0.0 0.00 0.00 0.00 99 1009.8
20260906082658 23 249 0.0 0.0 0.00 0.00 0.00 99 1009.5
20260906082153 23 249 0.0 0.0 0.00 0.00 0.00 99 1009.7
20260906081649 23 249 0.0 0.0 0.00 0.00 0.00 99 1009.9
20260906081144 23 249 0.0 0.0 0.00 0.00 0.00 99 1009.7
20260906080640 23 249 0.0 0.0 0.00 0.00 0.00 99 1009.8
20260906080136 23 249 0.0 0.0 0.00 0.00 0.00 99 1009.9
20260906075630 23 249 0.0 0.0 0.00 0.00 0.00 99 1009.9
20260906075125 23 249 0.0 0.0 0.00 0.00 0.00 99 1010.1
20260906074620 23 249 0.0 0.0 0.00 0.00 0.00 99 1009.9
20260906074118 23 249 0.0 0.0 0.00 0.00 0.00 99 1010.0
20260906073614 23 249 0.0 0.0 0.00 0.00 0.00 99 1009.8
20260906073110 23 249 0.0 0.0 0.00 0.00 0.00 99 1009.7
20260906072605 23 249 0.0 0.0 0.00 0.00 0.00 99 1009.7
20260906072101 24 249 0.0 0.0 0.00 0.00 0.00 99 1009.7
20260906071557 24 249 0.0 0.0 0.00 0.00 0.00 99 1009.5
20260906071057 24 249 0.0 0.0 0.00 0.00 0.00 99 1009.9
20260906070554 24 249 0.0 0.0 0.00 0.00 0.00 99 1009.7
20260906070049 25 249 0.0 0.0 0.00 0.00 0.00 99 1009.7
20260906065548 25 249 0.0 0.0 0.00 0.00 0.00 99 1009.8
20260906065044 25 249 0.0 0.0 0.00 0.00 0.00 99 1009.9
20260906064540 25 247 0.0 0.0 0.00 0.00 0.00 99 1009.7
20260906064034 25 248 0.0 0.0 0.00 0.00 0.00 99 1009.5
20260906063530 24 245 0.0 0.0 0.00 0.00 0.00 99 1009.8
20260906063026 24 244 0.0 0.0 0.00 0.00 0.00 99 1009.9
20260906062521 24 244 0.0 0.0 0.00 0.00 0.00 99 1009.9
20260906062015 24 244 0.0 0.0 0.00 0.00 0.00 99 1010.0
20260906061511 23 244 0.0 0.0 0.00 0.00 0.00 99 1010.0
20260906061011 24 245 0.0 0.0 0.00 0.00 0.00 99 1009.9
20260906060508 24 245 0.0 0.0 0.00 0.00 0.00 99 1010.5
20260906060004 24 245 0.0 0.0 0.00 0.00 0.00 99 1010.0
20260906055500 24 245 0.0 0.0 0.00 0.00 0.00 99 1010.1
20260906054955 24 245 0.0 0.0 0.00 0.00 0.00 99 1010.2
20260906054454 24 245 0.0 0.0 0.00 0.00 0.00 99 1010.3
20260906053950 24 245 0.0 0.0 0.00 0.00 0.00 99 1010.5
20260906053446 24 245 0.0 0.0 0.00 0.00 0.00 99 1010.5
20260906052942 24 245 0.0 0.0 0.00 0.00 0.00 99 1010.3
20260906052438 24 245 0.0 0.0 0.00 0.00 0.00 99 1010.2
20260906051934 24 245 0.0 0.0 0.00 0.00 0.00 98 1010.2
20260906051430 24 245 0.0 0.0 0.00 0.00 0.00 98 1010.5
20260906050925 24 245 0.0 0.0 0.00 0.00 0.00 98 1010.4
20260906050425 24 245 0.0 0.0 0.00 0.00 0.00 98 1010.5
20260906045924 24 245 0.0 0.0 0.00 0.00 0.00 98 1010.5
20260906045423 25 245 0.0 0.0 0.00 0.00 0.00 98 1010.6
20260906044920 24 245 0.0 0.0 0.00 0.00 0.00 98 1010.4
20260906044420 24 245 0.0 0.0 0.00 0.00 0.00 98 1010.3
20260906043915 25 245 0.0 0.0 0.00 0.00 0.00 98 1010.8
20260906043411 25 245 0.0 0.0 0.00 0.00 0.00 98 1010.8
20260906042906 25 245 0.0 0.0 0.00 0.00 0.00 98 1010.6
20260906042406 25 246 0.0 0.0 0.00 0.00 0.00 97 1011.0
20260906041901 25 246 0.0 0.0 0.00 0.00 0.00 97 1010.8
20260906041357 25 246 0.0 0.0 0.00 0.00 0.00 97 1010.8
20260906040856 25 223 0.0 0.0 0.00 0.00 0.00 97 1010.8
20260906040352 25 223 0.0 0.0 0.00 0.00 0.00 97 1010.8
20260906035847 25 223 0.0 0.0 0.00 0.05 0.05 97 1010.8
20260906035342 25 223 0.0 0.0 0.00 0.05 0.05 97 1011.0
20260906034838 25 223 0.0 0.0 0.00 0.05 0.05 97 1011.0
20260906034332 25 223 0.0 0.0 0.00 0.05 0.05 97 1011.2
20260906033829 25 223 0.0 0.0 0.00 0.05 0.05 97 1011.2
20260906033327 25 223 0.0 0.0 0.00 0.05 0.05 96 1011.4
20260906032824 25 223 0.0 0.0 0.00 0.05 0.05 96 1011.5
20260906032320 25 223 0.0 0.0 0.00 0.05 0.05 96 1011.6
20260906031815 25 223 0.0 0.0 0.00 0.05 0.05 96 1011.5
20260906031310 25 223 0.0 0.0 0.00 0.05 0.05 96 1011.7
20260906030810 25 223 0.0 0.0 0.00 0.05 0.05 96 1011.5
20260906030305 25 223 0.0 0.0 0.00 0.05 0.05 96 1011.3
20260906025805 25 223 0.0 0.0 0.00 0.05 0.05 96 1011.6
20260906025259 25 223 0.0 0.0 0.00 0.05 0.05 95 1011.5
20260906024758 25 223 0.0 0.0 0.00 0.05 0.05 95 1011.3
20260906024257 25 223 0.0 0.0 0.00 0.05 0.05 95 1011.2
20260906023753 25 223 0.0 0.0 0.00 0.05 0.05 95 1011.0
20260906023248 25 223 0.0 0.0 0.00 0.05 0.05 95 1010.9
20260906022744 25 223 0.0 0.0 0.00 0.05 0.05 95 1010.8
20260906022238 25 223 0.0 0.0 0.00 0.05 0.05 95 1010.6
20260906021735 25 223 0.0 0.0 0.00 0.05 0.05 94 1010.6
20260906020502 26 223 0.0 0.0 0.00 0.05 0.05 94 1010.6
20260906020001 26 223 0.0 0.0 0.00 0.05 0.05 94 1010.6
20260906015500 26 223 0.0 0.0 0.00 0.05 0.05 94 1010.4
20260906015000 26 223 0.0 0.0 0.00 0.05 0.05 94 1010.5
20260906014455 26 223 0.0 0.0 0.00 0.05 0.05 93 1010.5
20260906013951 26 223 0.0 0.0 0.00 0.05 0.05 93 1010.3
20260906013447 26 223 0.0 0.0 0.00 0.05 0.05 93 1010.3
20260906012942 26 223 0.0 0.0 0.00 0.05 0.05 93 1010.0
20260906012437 26 223 0.0 0.0 0.00 0.05 0.05 93 1010.0
20260906011936 26 223 0.0 0.0 0.00 0.05 0.05 93 1009.9
20260906011432 26 223 0.0 0.0 0.00 0.05 0.05 92 1009.9
20260906010927 26 223 0.0 0.0 0.00 0.05 0.05 92 1009.6
20260906010422 26 223 0.0 0.0 0.00 0.05 0.05 92 1009.9
20260906005918 26 223 0.0 0.0 0.00 0.05 0.05 92 1009.9
20260906005417 26 223 1.6 1.6 0.00 0.05 0.05 92 1009.7
20260906004916 26 223 0.0 0.0 0.00 0.05 0.05 91 1009.7
20260906004411 26 223 0.0 0.0 0.00 0.05 0.05 91 1009.7
20260906003906 26 223 0.0 0.0 0.00 0.05 0.05 91 1009.6
20260906003401 26 223 0.0 0.0 0.00 0.05 0.05 90 1009.6
20260906002857 27 223 0.0 0.0 0.00 0.05 0.05 90 1009.6
20260906002356 27 223 0.0 0.0 0.00 0.05 0.05 89 1009.5
20260906001852 27 224 0.0 0.0 0.00 0.05 0.05 89 1009.4
20260906001347 27 224 0.0 0.0 0.00 0.05 0.05 89 1009.5
20260906000842 27 224 0.0 0.0 0.00 0.05 0.05 88 1009.5
20260906000342 27 198 0.0 0.0 0.00 0.05 0.05 87 1009.5
20260905235842 27 182 0.0 0.0 0.00 0.05 0.05 87 1009.4
20260905235337 28 182 0.0 0.0 0.00 0.05 0.05 86 1009.5
20260905234832 28 182 0.0 1.6 0.00 0.05 0.05 85 1009.5
20260905234328 28 172 0.0 0.0 0.00 0.05 0.05 85 1009.6
20260905233823 28 172 0.0 0.0 0.00 0.05 0.05 84 1009.7
20260905233318 28 182 0.0 1.6 0.00 0.05 0.05 84 1009.4
20260905232817 28 181 0.0 3.2 0.00 0.05 0.05 83 1009.6
20260905232313 28 213 0.0 0.0 0.00 0.05 0.05 83 1009.4
20260905231808 29 200 0.0 0.0 0.00 0.05 0.05 82 1009.5
20260905231303 29 199 0.0 0.0 0.00 0.05 0.05 82 1009.5
20260905230800 30 189 0.0 1.6 0.00 0.05 0.05 81 1009.7
20260905230257 30 183 0.0 1.6 0.00 0.05 0.05 81 1009.8
20260905225757 30 228 0.0 3.2 0.00 0.05 0.05 81 1009.9
20260905225252 30 212 0.0 1.6 0.00 0.05 0.05 81 1009.9
20260905224751 30 205 0.0 4.8 0.00 0.05 0.05 81 1009.9
20260905224247 30 230 0.0 6.4 0.00 0.05 0.05 82 1009.9
20260905223743 30 189 1.6 4.8 0.00 0.05 0.05 83 1009.9
20260905223240 30 189 0.0 0.0 0.00 0.05 0.05 84 1010.1
20260905222735 30 191 0.0 3.2 0.00 0.05 0.05 84 1010.1
20260905222234 30 175 3.2 4.8 0.00 0.05 0.05 83 1010.3
20260905221730 31 194 0.0 0.0 0.00 0.05 0.05 84 1010.1
20260905221227 31 194 1.6 3.2 0.00 0.05 0.05 85 1010.3
20260905220723 30 188 3.2 6.4 0.00 0.05 0.05 87 1010.2
20260905220218 30 192 1.6 6.4 0.00 0.05 0.05 87 1010.2
20260905215718 30 181 1.6 1.6 0.00 0.05 0.05 87 1010.2
20260905215214 30 194 0.0 3.2 0.00 0.05 0.05 89 1010.1
20260905214709 30 223 0.0 3.2 0.00 0.05 0.05 90 1010.1
20260905214204 29 200 1.6 4.8 0.00 0.05 0.05 92 1010.0
20260905213700 28 194 0.0 0.0 0.00 0.05 0.05 93 1010.1
20260905213155 28 186 0.0 0.0 0.00 0.05 0.05 93 1009.9
20260905212650 28 174 3.2 4.8 0.00 0.05 0.05 94 1010.1
20260905212150 27 232 0.0 1.6 0.00 0.05 0.05 93 1010.0
20260905211644 27 184 0.0 0.0 0.00 0.05 0.05 94 1010.1
20260905211140 27 193 0.0 1.6 0.00 0.05 0.05 93 1010.0
20260905210637 27 193 0.0 0.0 0.00 0.05 0.05 93 1010.2
20260905210136 27 193 0.0 0.0 0.00 0.05 0.05 93 1010.4
20260905205635 27 192 0.0 0.0 0.00 0.05 0.05 93 1010.3
20260905205130 27 192 0.0 0.0 0.00 0.05 0.05 93 1010.3
20260905204629 27 192 0.0 0.0 0.00 0.05 0.05 93 1010.2
20260905204125 27 192 0.0 0.0 0.00 0.05 0.05 93 1010.2
20260905203625 27 192 0.0 0.0 0.00 0.05 0.05 93 1010.3
20260905203120 27 192 0.0 0.0 0.18 0.05 0.05 92 1010.2
20260905202616 27 192 0.0 1.6 0.18 0.05 0.05 92 1010.4
20260905202111 27 182 0.0 1.6 0.00 0.03 0.03 91 1010.5
20260905201607 27 173 0.0 1.6 0.00 0.03 0.03 91 1010.6
20260905201106 28 176 1.6 4.8 0.00 0.03 0.03 91 1010.5
20260905200602 28 192 0.0 0.0 0.00 0.03 0.03 90 1010.6
20260905200056 28 175 0.0 1.6 0.00 0.03 0.03 89 1010.6
20260905195555 28 186 3.2 4.8 0.00 0.03 0.03 89 1010.8
20260905195051 28 191 1.6 6.4 0.00 0.03 0.03 87 1010.6
20260905194551 29 176 0.0 1.6 0.00 0.03 0.03 85 1010.7
20260905194050 30 190 0.0 0.0 0.00 0.03 0.03 83 1011.0
20260905193545 30 179 0.0 1.6 0.13 0.03 0.03 80 1011.3
20260905193040 31 168 1.6 6.4 0.00 0.00 0.00 78 1011.2
20260905192535 31 185 0.0 3.2 0.00 0.00 0.00 74 1011.2
20260905192032 32 174 0.0 3.2 0.00 0.00 0.00 70 1011.0
20260905191531 32 214 0.0 1.6 0.00 0.00 0.00 67 1011.0
20260905191030 33 191 0.0 1.6 0.00 0.00 0.00 66 1011.1
20260905190528 33 164 0.0 4.8 0.00 0.00 0.00 67 1011.1
20260905190027 33 202 0.0 3.2 0.00 0.00 0.00 68 1010.9
20260905185307 33 321 3.2 4.8 0.00 0.00 0.00 70 1010.7
20260905184806 33 321 3.2 4.8 0.00 0.00 0.00 70 1010.7
20260905184306 33 213 0.0 0.0 0.00 0.00 0.00 71 1010.8
20260905183804 32 262 1.6 6.4 0.00 0.00 0.00 72 1011.0
20260905183300 32 6 3.2 9.7 0.00 0.00 0.00 73 1011.1
20260905182759 32 68 1.6 9.7 0.00 0.00 0.00 72 1011.2
20260905182253 32 216 1.6 3.2 0.00 0.00 0.00 73 1011.2
20260905181749 32 29 1.6 3.2 0.00 0.00 0.00 73 1011.4
20260905181248 32 254 3.2 3.2 0.00 0.00 0.00 75 1011.2
20260905180743 31 198 0.0 3.2 0.00 0.00 0.00 77 1011.4
20260905180238 31 289 0.0 4.8 0.00 0.00 0.00 77 1011.7
20260905175732 31 2 0.0 1.6 0.00 0.00 0.00 78 1011.7
20260905175227 30 11 8.0 9.7 0.00 0.00 0.00 78 1011.8
20260905174723 31 343 0.0 1.6 0.00 0.00 0.00 80 1011.9
20260905174218 31 29 1.6 1.6 0.00 0.00 0.00 82 1011.8
20260905173714 30 216 3.2 3.2 0.00 0.00 0.00 83 1011.9
20260905173210 30 293 3.2 4.8 0.00 0.00 0.00 85 1012.1
20260905172709 30 1 0.0 3.2 0.00 0.00 0.00 87 1012.2
20260905172203 30 153 0.0 3.2 0.00 0.00 0.00 88 1012.1
20260905171659 28 351 0.0 1.6 0.00 0.00 0.00 89 1012.3
20260905171155 28 351 0.0 1.6 0.00 0.00 0.00 89 1012.3
20260905170652 28 308 1.6 3.2 0.00 0.00 0.00 89 1012.5
20260905170146 28 1 0.0 1.6 0.00 0.00 0.00 89 1012.6
20260905165646 28 340 1.6 3.2 0.00 0.00 0.00 89 1012.6
20260905165142 29 155 0.0 3.2 0.00 0.00 0.00 89 1012.6
20260905164642 28 33 3.2 4.8 0.00 0.00 0.00 90 1012.7
20260905164141 28 129 0.0 1.6 0.00 0.00 0.00 91 1012.6
20260905163637 28 16 0.0 1.6 0.00 0.00 0.00 91 1013.0
20260905163134 28 122 1.6 3.2 0.00 0.00 0.00 91 1012.6
20260905162630 28 37 3.2 6.4 0.00 0.00 0.00 92 1012.9
20260905162129 28 130 1.6 3.2 0.00 0.00 0.00 92 1012.8
20260905161628 28 26 1.6 3.2 0.00 0.00 0.00 93 1013.0
20260905161127 28 19 1.6 3.2 0.00 0.00 0.00 93 1013.0
20260905160627 28 232 4.8 9.7 0.00 0.00 0.00 93 1013.0
20260905160126 28 236 0.0 0.0 0.00 0.00 0.00 94 1013.0
20260905155621 28 279 1.6 3.2 0.00 0.00 0.00 94 1013.0
20260905155120 28 255 0.0 0.0 0.00 0.00 0.00 95 1012.9
20260905154620 28 224 0.0 0.0 0.00 0.00 0.00 95 1013.0
20260905154115 28 212 0.0 3.2 0.00 0.00 0.00 95 1013.0
20260905153611 27 240 0.0 0.0 0.00 0.00 0.00 95 1013.1
20260905153106 27 189 0.0 4.8 0.00 0.00 0.00 95 1012.9
20260905152601 27 122 0.0 1.6 0.00 0.00 0.00 96 1013.3
20260905152055 27 238 1.6 4.8 0.00 0.00 0.00 96 1013.4
20260905151551 27 185 0.0 1.6 0.00 0.00 0.00 97 1013.2
20260905151046 27 190 0.0 1.6 0.00 0.00 0.00 97 1013.0
20260905150541 27 53 0.0 1.6 0.00 0.00 0.00 98 1013.1
20260905150039 27 63 1.6 4.8 0.00 0.00 0.00 99 1013.1
20260905145533 26 63 0.0 1.6 0.00 0.00 0.00 99 1013.0
20260905145032 26 313 0.0 1.6 0.00 0.00 0.00 99 1013.1
20260905144527 26 176 0.0 1.6 0.00 0.00 0.00 99 1013.1
20260905144026 26 114 1.6 3.2 0.00 0.00 0.00 99 1012.8
20260905143526 26 169 0.0 0.0 0.00 0.00 0.00 99 1012.9
20260905143021 26 176 0.0 0.0 0.00 0.00 0.00 99 1013.0
20260905142519 26 243 0.0 1.6 0.00 0.00 0.00 99 1013.0
20260905142015 26 243 0.0 1.6 0.00 0.00 0.00 99 1013.1
20260905141509 25 242 0.0 0.0 0.00 0.00 0.00 99 1013.2
20260905141006 25 47 0.0 1.6 0.00 0.00 0.00 99 1013.1
20260905140500 25 47 0.0 0.0 0.00 0.00 0.00 99 1013.1
20260905135959 25 47 0.0 0.0 0.00 0.00 0.00 99 1013.1
20260905135455 25 47 0.0 1.6 0.00 0.00 0.00 99 1013.5
20260905134950 25 64 1.6 3.2 0.00 0.00 0.00 99 1013.6
20260905134449 25 86 0.0 0.0 0.00 0.00 0.00 99 1013.5
20260905133949 25 121 0.0 1.6 0.00 0.00 0.00 99 1013.5
20260905133444 25 12 3.2 3.2 0.00 0.00 0.00 99 1013.5
20260905132943 25 25 0.0 1.6 0.00 0.00 0.00 99 1013.2
20260905132438 25 25 0.0 3.2 0.00 0.00 0.00 99 1013.3
20260905131933 25 26 0.0 1.6 0.00 0.00 0.00 99 1013.6